This is the latest recevied weather packets stored in our database for station/object IW8PDD-3. If no packets are shown the sender has not sent any weather packets the latest 10 day(s).
| Time | Temp. | Humidity | Pressure | Rain* | Wind** | Luminosity | Snow |
|---|---|---|---|---|---|---|---|
| 1777254002 | 17.22° C | 42% | 1018.5 hPa | - | - | - | - |
| 1777252799 | 17.22° C | 43% | 1018.5 hPa | - | - | - | - |
| 1777251596 | 17.22° C | 43% | 1018.6 hPa | - | - | - | - |
| 1777250392 | 17.78° C | 43% | 1018.8 hPa | - | - | - | - |
| 1777247985 | 17.22° C | 43% | 1018.9 hPa | - | - | - | - |
| 1777246782 | 17.22° C | 42% | 1019.1 hPa | - | - | - | - |
| 1777244375 | 17.78° C | 42% | 1019.4 hPa | - | - | - | - |
| 1777243171 | 17.78° C | 42% | 1019.5 hPa | - | - | - | - |
| 1777241968 | 18.33° C | 42% | 1019.6 hPa | - | - | - | - |
| 1777240765 | 18.33° C | 42% | 1019.6 hPa | - | - | - | - |
| 1777238358 | 18.33° C | 43% | 1019.9 hPa | - | - | - | - |
| 1777237154 | 18.89° C | 43% | 1019.8 hPa | - | - | - | - |
| 1777235951 | 18.89° C | 44% | 1019.8 hPa | - | - | - | - |
| 1777234747 | 18.89° C | 45% | 1019.9 hPa | - | - | - | - |
| 1777233544 | 18.89° C | 44% | 1019.9 hPa | - | - | - | - |
| 1777232340 | 19.44° C | 44% | 1019.7 hPa | - | - | - | - |
| 1777231137 | 19.44° C | 44% | 1019.6 hPa | - | - | - | - |
| 1777229933 | 19.44° C | 43% | 1019.4 hPa | - | - | - | - |
| 1777226323 | 20.56° C | 43% | 1018.6 hPa | - | - | - | - |
| 1777225119 | 20.56° C | 43% | 1018.5 hPa | - | - | - | - |
| 1777222713 | 21.67° C | 42% | 1018.4 hPa | - | - | - | - |
| 1777221509 | 22.78° C | 41% | 1018.5 hPa | - | - | - | - |
| 1777219102 | 26.67° C | 40% | 1018.3 hPa | - | - | - | - |
| 1777217899 | 29.44° C | 39% | 1018.2 hPa | - | - | - | - |
| 1777215492 | 30.56° C | 39% | 1018.3 hPa | - | - | - | - |
* Rain since midnight (hover to see other rain measurements)
** Current wind speed in m/s (hover to see current wind gust speed)